Wind_Speed
4 4 4 3 2 2 2 2 2 3 3 3 4 4 4 4 5 5 5 6 6 6 7 7 7 6 7 7 6 6 6 5 5 5 6 7 6 7 6 6 6 7 7 7 7 8 8 8 8
4 3 3 2 2 2 2 3 3 3 3 4 5 5 5 5 6 6 6 7 7 7 7 8 8 7 8 7 7 6 5 5 4 5 5 5 5 6 6 6 7 7 7 7 8 8 8 8 8
4 3 3 2 2 2 3 3 4 4 4 4 5 6 6 6 7 7 8 8 8 8 8 8 8 8 8 8 7 7 6 5 5 5 5 5 5 6 6 6 7 7 7 7 8 8 8 9 9
3 3 2 2 2 3 4 4 4 4 5 4 5 6 6 7 7 8 8 8 8 8 7 7 8 7 8 8 7 7 7 6 6 6 6 5 5 5 5 6 6 7 7 7 7 8 8 9 9
3 3 3 3 3 3 4 4 4 4 5 5 5 6 6 7 8 9 8 8 8 8 8 8 8 8 8 7 7 7 7 7 6 6 6 5 6 5 5 6 6 7 7 8 8 8 9 10 10
3 3 3 4 3 4 4 5 5 4 5 5 6 6 7 8 8 8 8 8 7 8 8 8 8 8 8 7 7 7 6 6 6 6 6 6 7 6 6 7 7 7 8 9 9 9 9 10 10
3 3 4 4 4 4 5 5 5 5 5 6 6 6 7 7 8 8 7 7 7 7 7 7 7 7 7 7 7 7 7 7 6 6 7 7 7 6 6 7 8 8 9 9 9 9 9 10 10
3 4 4 5 5 5 5 5 6 6 6 6 6 7 7 7 7 7 7 7 8 8 8 7 8 7 7 8 8 8 8 7 7 7 7 7 7 7 7 7 8 8 9 8 9 8 8 9 9
3 4 4 5 5 5 5 5 6 6 6 6 7 7 7 7 7 7 8 8 8 8 8 8 7 8 7 8 8 8 8 8 7 7 7 7 7 7 7 7 8 8 8 7 8 7 8 8 9
4 4 4 5 5 5 5 6 6 7 6 6 7 7 7 7 7 7 8 8 8 8 8 8 8 7 7 8 8 8 7 7 6 6 6 6 6 6 7 7 7 7 7 7 8 7 8 8 9
4 4 5 5 6 6 6 6 6 7 6 7 7 7 7 7 7 7 8 8 8 8 8 9 8 8 8 8 7 7 7 6 6 6 6 6 6 6 5 6 6 6 6 7 8 8 8 8 8
4 5 5 5 6 6 6 6 6 7 7 7 7 7 7 7 7 7 8 8 8 8 9 9 8 8 8 7 7 7 6 6 5 5 5 5 5 5 5 5 6 6 6 6 7 8 8 8 8
4 5 5 5 6 7 7 7 7 7 7 7 7 7 7 7 7 7 8 8 8 9 9 9 8 8 7 7 7 7 6 6 5 5 5 5 5 5 5 5 5 5 5 6 6 7 7 7 7
4 4 5 5 6 7 7 7 8 8 8 7 7 7 8 8 8 8 8 8 8 8 9 8 8 8 7 7 7 6 6 6 5 5 5 5 5 5 4 4 4 5 5 5 5 6 5 5 5
4 5 5 6 7 8 8 7 8 9 9 8 7 7 8 8 8 8 8 8 8 9 9 9 9 8 8 8 7 6 7 6 5 6 5 5 5 4 4 4 4 4 4 4 4 5 5 5 5
5 6 6 7 8 8 8 8 8 9 9 9 8 8 8 8 7 7 8 8 8 9 9 9 10 9 8 8 6 6 7 6 6 6 6 6 5 5 5 4 4 4 4 5 4 4 4 4 4
6 6 7 7 8 8 8 8 8 8 9 9 9 8 7 7 7 7 8 7 8 9 9 10 10 10 9 8 6 6 6 6 6 6 6 6 5 5 5 5 5 5 5 4 4 4 4 4 4
6 6 7 7 7 8 8 8 8 9 9 9 9 9 8 8 8 8 8 8 8 9 9 9 10 9 9 9 8 7 7 7 6 6 6 6 6 6 6 5 5 5 5 4 4 4 4 4 4
7 8 8 7 7 8 9 9 9 9 9 10 10 9 8 8 8 8 8 8 8 9 9 9 9 9 9 9 8 8 7 7 7 7 7 7 7 7 6 6 5 5 5 4 4 4 4 3 3
9 9 9 8 8 8 8 9 9 9 9 10 10 9 8 8 8 8 9 8 8 9 9 9 9 9 9 9 8 8 8 8 7 6 7 7 7 6 6 6 5 5 4 4 4 3 3 3 3
9 9 9 9 9 9 9 9 9 9 9 9 9 9 9 8 9 9 8 8 9 10 10 9 10 9 9 9 8 8 8 8 7 7 7 7 7 7 6 6 5 4 4 4 3 4 4 4 4
10 9 9 10 9 9 9 9 10 10 9 9 9 9 9 9 9 9 9 8 9 9 10 10 10 10 9 9 8 8 8 8 7 7 6 6 7 7 6 6 5 5 5 4 4 4 4 4 4
10 10 10 10 10 9 9 10 10 10 10 9 9 9 9 9 9 9 9 9 9 9 10 10 10 10 10 9 9 8 8 8 7 7 7 7 7 7 6 6 6 5 5 4 4 5 5 5 5
12 11 11 10 10 10 10 10 10 10 10 9 9 9 10 10 9 9 9 10 10 10 10 10 10 10 10 10 9 9 8 8 8 7 8 7 7 7 6 6 6 6 6 5 5 5 5 5 5
13 12 12 11 11 11 11 12 11 11 11 10 10 10 10 10 10 9 9 10 10 10 10 10 9 9 10 10 9 9 8 8 8 8 8 7 7 7 6 6 6 6 6 6 6 5 5 5 5
13 13 11 10 10 12 13 13 12 11 11 11 11 11 11 10 10 10 10 10 10 10 10 9 10 10 10 10 10 10 9 9 9 9 8 8 7 7 7 6 6 6 6 6 6 6 6 6 6
15 15 14 14 13 13 12 12 12 12 12 12 12 12 12 11 11 11 11 11 11 11 10 10 10 10 10 10 11 10 10 10 9 9 8 8 7 7 7 7 7 7 6 6 7 7 7 7 7
17 16 16 16 15 13 13 13 13 12 12 13 13 13 13 13 13 12 12 12 12 11 11 11 11 11 11 11 11 11 10 10 10 10 9 9 8 8 8 8 8 8 7 7 7 7 7 7 8
18 18 17 18 17 15 13 14 16 15 14 14 14 14 14 13 13 13 13 12 12 12 12 12 11 11 11 12 12 12 11 11 11 11 11 10 10 10 10 9 9 9 8 8 8 8 8 9 9
19 19 19 19 18 18 17 17 16 17 17 16 15 15 15 14 14 14 13 13 13 13 13 13 12 12 12 12 12 13 13 13 13 12 12 11 11 11 11 11 10 10 10 10 9 9 9 9 8
Wind_Direction
73 80 82 72 63 53 23 6 350 342 331 325 322 317 315 312 310 304 307 309 309 307 301 297 300 295 293 289 292 293 292 286 271 266 263 258 243 239 241 245 245 249 248 240 233 230 232 229 227
76 84 78 69 52 22 352 347 338 331 320 318 318 318 314 311 313 309 307 309 312 310 301 298 297 294 293 292 294 297 293 298 294 282 271 261 257 251 248 247 250 253 249 247 241 239 234 235 233
72 75 74 76 48 9 335 331 328 322 315 312 316 317 313 316 316 312 311 310 310 306 300 295 296 294 295 291 292 292 292 293 291 282 275 274 274 258 252 252 255 253 254 254 248 246 243 244 244
59 60 62 63 32 0 337 332 327 319 315 319 322 320 319 318 317 315 313 309 310 310 305 302 302 300 298 291 292 295 289 285 281 277 276 271 279 266 254 254 257 255 254 254 254 251 248 247 249
50 49 42 44 27 1 344 337 324 317 318 319 322 324 327 323 320 319 316 311 313 313 306 302 303 304 302 302 303 299 288 282 279 278 274 269 277 270 259 255 261 257 254 254 257 255 251 249 252
40 34 33 32 25 4 348 339 332 328 323 324 324 324 326 325 322 320 318 313 313 313 309 307 308 311 311 312 306 296 290 283 280 277 271 275 282 277 267 263 262 263 265 261 257 258 255 254 256
33 30 28 18 5 354 347 341 339 332 324 323 326 326 328 329 328 325 326 324 321 321 321 314 317 314 310 312 311 303 297 289 284 281 277 282 287 287 279 271 268 270 270 266 261 260 262 260 257
22 14 12 6 353 347 345 341 337 330 326 323 324 324 325 328 331 330 334 333 328 328 328 321 314 313 310 311 312 309 303 291 287 285 278 280 284 290 291 279 276 275 276 270 268 266 263 261 257
359 3 5 2 354 347 342 339 335 328 323 325 326 328 328 327 332 331 332 335 331 331 332 331 323 317 316 317 317 312 304 293 289 286 284 282 286 288 288 283 282 277 280 276 275 268 262 265 264
352 347 349 352 351 346 342 337 336 334 331 330 330 330 329 328 328 331 332 336 335 335 336 334 329 328 326 324 323 320 315 305 301 294 291 287 289 290 288 287 285 282 279 274 271 273 272 269 268
344 343 345 348 347 343 343 339 336 338 332 332 333 333 331 329 328 331 331 333 334 334 335 334 332 330 328 331 336 332 324 317 306 299 294 293 294 295 296 294 292 288 280 274 275 275 276 274 273
334 336 341 343 343 340 340 341 338 338 336 336 335 334 331 329 329 332 331 332 334 333 333 331 331 331 331 332 335 334 325 325 322 311 302 303 302 299 301 303 302 298 291 292 286 280 275 276 273
323 327 332 337 340 340 340 340 338 341 337 332 329 328 329 330 331 334 331 333 335 335 335 336 335 333 333 332 332 332 329 328 324 315 312 307 306 307 305 308 307 301 296 290 286 283 282 285 280
315 320 324 330 334 335 335 335 338 340 341 331 323 321 325 327 327 329 331 332 336 338 341 339 340 336 336 334 329 326 325 322 322 317 314 311 308 307 309 308 307 306 304 297 292 290 290 285 284
304 308 317 322 326 329 331 333 336 337 337 336 330 323 324 324 326 328 333 333 336 338 339 338 341 338 336 334 332 325 323 321 318 320 317 314 309 308 311 313 310 311 309 306 300 294 292 293 293
295 304 318 323 323 326 329 334 336 335 334 335 335 331 326 326 327 327 330 331 332 337 338 337 338 332 331 333 327 322 321 323 320 315 315 318 308 308 311 312 311 306 306 306 300 292 294 295 295
293 307 312 316 320 326 328 334 338 335 332 334 334 331 329 325 325 323 323 324 328 334 333 334 331 328 327 328 327 325 319 318 323 320 317 320 317 309 308 308 308 306 303 304 301 293 296 296 296
296 296 305 310 317 320 322 327 330 330 331 332 332 332 331 327 325 320 320 320 325 330 332 332 332 330 331 329 326 324 318 316 315 315 317 321 320 315 308 303 306 300 298 300 300 296 300 300 301
281 288 299 306 311 315 318 321 325 327 329 329 331 334 331 329 327 321 321 323 324 326 330 332 335 335 333 329 328 325 323 321 318 313 312 314 314 315 312 307 299 293 289 288 290 289 296 300 300
279 283 291 296 307 312 312 317 321 321 324 327 329 331 330 328 327 327 327 327 324 326 329 330 336 335 331 326 323 325 325 328 325 317 310 309 310 310 309 305 301 292 290 286 289 288 298 298 293
272 276 287 294 297 301 306 313 315 316 320 323 326 326 327 327 325 327 326 324 326 329 331 336 339 336 333 330 329 333 331 330 328 321 313 309 311 312 310 303 302 304 301 288 286 292 289 292 293
268 272 283 288 292 298 301 306 314 315 319 321 323 323 325 324 324 325 324 316 318 328 330 337 339 335 330 329 328 330 331 329 327 320 314 310 311 313 309 304 300 304 301 292 287 295 286 286 289
265 269 276 282 286 292 297 301 310 313 319 319 318 319 320 321 321 322 320 317 320 322 325 330 333 333 329 328 327 326 327 327 325 320 315 311 308 306 303 301 301 299 297 290 284 285 290 288 288
262 267 272 280 284 283 292 294 302 311 318 316 313 315 317 320 322 320 319 320 320 317 318 322 326 331 332 328 324 324 324 324 323 320 315 312 309 304 302 296 298 299 298 294 289 287 287 290 293
258 264 271 280 290 287 288 284 288 303 307 309 309 311 314 318 318 321 322 323 320 317 314 313 317 323 328 329 324 320 318 320 321 319 315 312 307 303 302 294 294 296 296 292 290 285 283 286 290
258 260 264 263 268 277 280 280 284 294 299 302 304 307 310 313 314 317 319 319 318 317 314 311 311 314 318 322 322 316 315 316 316 315 310 307 304 301 302 298 297 296 294 291 288 285 287 285 284
255 256 257 257 261 263 272 279 282 289 293 296 299 301 304 307 308 311 312 314 315 315 314 310 305 305 309 313 316 315 314 312 312 311 307 304 300 296 295 292 291 292 290 289 289 289 288 285 284
252 254 256 254 256 256 262 273 279 283 286 290 295 298 299 300 302 304 307 309 312 312 311 309 303 302 303 305 308 309 308 307 306 305 302 300 295 289 289 286 287 286 282 283 287 288 287 288 285
253 250 254 257 255 254 252 263 272 277 282 284 289 294 296 297 298 300 304 306 308 309 310 310 306 300 300 301 301 304 305 302 302 300 298 296 293 289 286 283 283 281 277 277 283 286 287 286 287
254 253 254 255 256 253 253 262 270 275 279 282 286 290 292 293 295 298 300 302 304 306 307 307 304 299 297 298 297 297 297 296 295 294 291 292 289 285 284 283 281 279 279 278 280 282 287 287 287
Height
5877 5877 5878 5878 5879 5879 5878 5878 5878 5878 5878 5877 5877 5877 5877 5876 5877 5878 5876 5874 5874 5873 5873 5872 5871 5871 5870 5870 5869 5869 5868 5868 5868 5868 5868 5868 5869 5869 5870 5870 5870 5871 5871 5872 5872 5872 5873 5873 5874
5878 5878 5879 5879 5879 5878 5879 5878 5878 5878 5878 5877 5877 5877 5876 5876 5876 5875 5874 5874 5873 5872 5872 5871 5871 5870 5870 5869 5869 5868 5868 5868 5868 5867 5867 5867 5868 5868 5869 5869 5869 5870 5870 5870 5871 5871 5871 5872 5872
5879 5879 5880 5879 5878 5878 5878 5878 5878 5877 5877 5877 5877 5877 5876 5876 5875 5874 5874 5873 5872 5872 5871 5870 5870 5869 5868 5868 5868 5867 5867 5867 5867 5867 5866 5867 5867 5867 5868 5868 5868 5869 5869 5869 5870 5870 5870 5871 5871
5879 5880 5880 5880 5878 5878 5878 5878 5878 5877 5877 5877 5877 5876 5875 5875 5874 5874 5873 5872 5871 5871 5870 5869 5869 5868 5867 5867 5867 5866 5866 5866 5866 5866 5866 5866 5866 5866 5866 5867 5867 5868 5868 5868 5868 5869 5869 5869 5870
5880 5880 5880 5879 5878 5878 5878 5878 5877 5877 5877 5877 5876 5876 5875 5874 5873 5873 5872 5871 5870 5870 5869 5868 5868 5867 5866 5865 5865 5865 5865 5865 5865 5865 5865 5865 5865 5865 5865 5866 5866 5866 5867 5867 5867 5867 5868 5868 5868
5881 5880 5880 5879 5879 5879 5878 5877 5877 5877 5877 5876 5876 5875 5874 5874 5873 5872 5871 5870 5869 5869 5868 5867 5866 5865 5865 5864 5864 5864 5864 5864 5863 5863 5863 5864 5864 5864 5864 5864 5865 5865 5865 5865 5866 5866 5866 5866 5867
5882 5881 5880 5879 5879 5879 5878 5878 5877 5877 5876 5876 5875 5875 5874 5873 5872 5871 5870 5869 5869 5868 5867 5866 5866 5865 5863 5863 5863 5863 5863 5862 5862 5862 5862 5862 5862 5862 5863 5863 5863 5863 5863 5863 5864 5864 5864 5864 5865
5881 5882 5880 5879 5879 5879 5878 5878 5877 5876 5876 5876 5875 5874 5873 5873 5871 5870 5870 5869 5868 5867 5866 5866 5865 5864 5863 5863 5862 5862 5861 5861 5861 5861 5861 5861 5861 5861 5861 5861 5861 5861 5861 5861 5862 5862 5862 5863 5863
5881 5882 5880 5880 5880 5879 5878 5878 5877 5876 5876 5875 5874 5874 5873 5872 5871 5870 5869 5868 5867 5866 5866 5865 5864 5863 5862 5862 5861 5860 5860 5860 5859 5859 5859 5859 5859 5859 5859 5859 5859 5859 5860 5860 5860 5860 5861 5861 5862
5882 5881 5881 5880 5880 5879 5878 5878 5877 5876 5875 5875 5874 5873 5872 5871 5870 5870 5869 5868 5867 5866 5865 5864 5863 5862 5862 5861 5860 5859 5859 5858 5858 5858 5858 5858 5858 5858 5858 5858 5858 5858 5858 5858 5858 5858 5859 5859 5860
5882 5881 5881 5880 5879 5879 5878 5877 5877 5876 5875 5875 5874 5873 5872 5871 5870 5869 5868 5867 5866 5865 5865 5864 5863 5862 5861 5860 5859 5858 5858 5858 5857 5857 5857 5857 5857 5857 5857 5857 5856 5856 5856 5856 5856 5856 5857 5857 5858
5882 5881 5881 5880 5880 5879 5878 5877 5877 5876 5875 5874 5873 5872 5871 5870 5869 5869 5868 5867 5866 5865 5864 5863 5862 5861 5860 5859 5859 5858 5858 5857 5857 5856 5856 5856 5856 5856 5856 5856 5855 5855 5855 5855 5855 5855 5855 5856 5856
5882 5881 5881 5880 5880 5879 5878 5877 5876 5875 5874 5873 5872 5872 5871 5870 5869 5868 5867 5866 5866 5865 5863 5862 5861 5860 5860 5859 5858 5858 5857 5857 5856 5856 5855 5855 5855 5855 5855 5855 5855 5854 5854 5854 5854 5854 5854 5854 5854
5882 5881 5881 5880 5880 5879 5878 5877 5876 5875 5874 5873 5872 5871 5870 5869 5868 5867 5866 5866 5865 5864 5863 5862 5861 5860 5859 5858 5858 5857 5856 5856 5855 5855 5855 5854 5854 5854 5854 5854 5854 5853 5853 5853 5853 5853 5853 5853 5853
5881 5881 5881 5880 5879 5878 5878 5877 5876 5875 5873 5872 5871 5870 5869 5868 5867 5866 5866 5865 5864 5864 5863 5862 5860 5859 5859 5858 5857 5857 5856 5855 5855 5855 5854 5854 5854 5853 5853 5853 5853 5853 5852 5852 5852 5852 5852 5852 5852
5880 5881 5880 5880 5879 5878 5879 5877 5875 5874 5873 5872 5871 5870 5868 5867 5867 5866 5865 5864 5863 5863 5862 5861 5860 5859 5858 5857 5857 5856 5855 5855 5855 5854 5854 5853 5853 5853 5853 5852 5852 5852 5852 5851 5851 5851 5851 5851 5852
5879 5879 5879 5879 5878 5877 5877 5876 5875 5873 5872 5871 5870 5869 5868 5867 5867 5866 5865 5864 5863 5862 5862 5860 5859 5858 5858 5857 5856 5855 5855 5854 5854 5853 5853 5853 5852 5852 5852 5852 5851 5851 5851 5851 5850 5850 5850 5850 5851
5879 5878 5878 5878 5877 5876 5876 5875 5874 5873 5871 5870 5869 5868 5867 5866 5866 5865 5864 5863 5862 5862 5861 5860 5858 5858 5857 5856 5855 5855 5854 5854 5853 5853 5852 5852 5852 5851 5851 5851 5851 5850 5850 5850 5850 5850 5850 5850 5850
5878 5877 5877 5877 5876 5876 5875 5874 5873 5872 5871 5870 5869 5868 5867 5866 5865 5864 5863 5863 5862 5861 5860 5859 5857 5857 5856 5855 5855 5854 5853 5853 5852 5852 5851 5851 5851 5850 5850 5850 5850 5849 5849 5849 5849 5849 5849 5849 5849
5876 5876 5876 5876 5875 5875 5873 5873 5872 5871 5870 5869 5868 5867 5866 5865 5864 5863 5863 5862 5861 5860 5859 5859 5857 5856 5856 5855 5854 5853 5852 5852 5851 5851 5850 5850 5850 5849 5849 5849 5849 5848 5848 5848 5848 5848 5848 5848 5848
5875 5875 5875 5875 5874 5873 5873 5872 5871 5870 5869 5868 5868 5866 5865 5864 5863 5863 5862 5861 5860 5860 5859 5858 5857 5856 5855 5854 5853 5852 5851 5851 5850 5850 5850 5849 5849 5848 5848 5848 5848 5847 5847 5847 5847 5847 5847 5848 5848
5872 5873 5873 5873 5872 5872 5872 5871 5870 5869 5868 5867 5867 5866 5865 5864 5863 5862 5861 5860 5860 5859 5858 5857 5856 5855 5854 5853 5853 5852 5851 5850 5850 5849 5849 5848 5848 5847 5847 5847 5847 5847 5846 5846 5846 5846 5846 5847 5846
5871 5871 5871 5871 5870 5871 5870 5870 5870 5868 5867 5867 5866 5865 5864 5863 5862 5861 5860 5859 5858 5858 5857 5856 5855 5855 5854 5853 5852 5851 5850 5849 5849 5848 5848 5847 5847 5846 5846 5846 5846 5846 5846 5845 5845 5845 5845 5845 5845
5868 5869 5869 5869 5869 5869 5869 5869 5868 5867 5866 5865 5865 5864 5863 5862 5861 5861 5860 5859 5858 5857 5856 5855 5854 5854 5853 5852 5851 5850 5849 5848 5848 5847 5846 5846 5846 5845 5845 5845 5845 5845 5844 5844 5844 5844 5844 5844 5844
5866 5867 5867 5867 5867 5868 5868 5867 5867 5866 5865 5864 5864 5863 5862 5861 5860 5859 5859 5858 5857 5856 5855 5854 5853 5853 5852 5851 5850 5849 5848 5848 5847 5846 5845 5845 5845 5844 5844 5844 5844 5843 5843 5843 5843 5843 5843 5843 5843
5863 5864 5866 5866 5866 5866 5865 5865 5866 5865 5864 5863 5862 5861 5861 5860 5859 5858 5858 5857 5856 5855 5854 5853 5852 5851 5851 5850 5849 5848 5847 5846 5846 5845 5844 5844 5843 5843 5843 5843 5843 5842 5842 5842 5842 5842 5842 5842 5842
5860 5861 5862 5863 5863 5863 5863 5863 5863 5862 5862 5861 5861 5860 5859 5859 5858 5857 5856 5855 5854 5853 5852 5851 5850 5850 5849 5848 5847 5847 5846 5845 5844 5844 5843 5842 5842 5842 5842 5841 5841 5841 5841 5841 5841 5841 5841 5840 5840
5857 5858 5858 5859 5860 5861 5861 5861 5860 5860 5860 5859 5859 5858 5857 5857 5856 5855 5854 5853 5852 5851 5850 5849 5849 5848 5847 5846 5846 5845 5844 5843 5843 5842 5842 5841 5841 5840 5840 5840 5840 5840 5840 5840 5840 5839 5839 5839 5839
5853 5854 5854 5855 5856 5858 5858 5860 5857 5857 5857 5857 5856 5856 5855 5854 5853 5852 5852 5851 5850 5849 5848 5847 5846 5845 5845 5844 5843 5842 5842 5841 5841 5840 5840 5839 5839 5839 5838 5838 5838 5838 5838 5838 5838 5838 5837 5837 5837
5848 5849 5850 5852 5852 5853 5854 5857 5853 5853 5853 5853 5853 5853 5852 5851 5851 5850 5849 5848 5847 5846 5845 5844 5843 5843 5842 5841 5840 5840 5839 5839 5838 5838 5837 5837 5837 5836 5836 5836 5836 5836 5836 5836 5836 5836 5835 5835 5835